[[{"header":{"parameterUnit":"m.s-1","parameterCategory":1,"la1":30.2992,"la2":30.254,"lo1":-89.0895,"lo2":-89.0443,"dy":0.0025,"dx":0.0025,"nx":19,"ny":19,"refTime":"2026-04-17T09:00:00:Z","depth":0,"parameterNumber":2,"parameterNumberName":"U-component_of_WINDS"},"data":[0,0,0,1.6023,1.6022,1.5964,1.5964,1.5904,1.5904,0,0,0,0,0,0,0,0,0,0,0,1.605,1.605,1.6023,1.6022,1.5964,1.5964,1.5904,1.5904,0,0,0,0,0,0,0,0,0,0,0,1.605,1.605,1.605,1.6021,1.5964,1.5963,1.5904,1.5942,0,0,0,0,0,0,0,0,0,0,1.5996,1.6032,1.605,1.605,1.6021,1.5964,1.5963,1.5944,1.594,1.5937,0,1.5939,0,1.592,1.5901,1.59,0,0,0,1.6013,1.6036,1.601,1.605,1.6021,1.5964,1.5988,1.5941,1.5937,1.5932,1.5938,1.5935,1.5919,1.59,1.59,1.5912,1.5912,0,0,1.6017,1.6045,1.6014,1.6008,1.602,1.599,1.5986,1.5938,1.5946,1.5937,1.5933,1.5918,1.59,1.59,1.5911,1.5912,0,0,0,1.6031,1.6048,1.6024,1.6011,1.6,1.5988,1.5984,1.5948,1.5938,1.5932,1.5918,1.59,1.5899,1.5911,1.5911,1.596,0,0,0,1.6033,1.6057,1.6026,1.6043,1.6001,1.5974,1.5995,1.5941,1.5935,1.5918,1.59,1.5899,1.591,1.5911,1.5958,1.5978,0,0,0,1.6051,1.6058,1.6054,1.6044,1.6021,1.5974,1.596,1.5939,1.5926,1.59,1.5899,1.591,1.5911,1.5956,1.5974,1.5988,0,0,0,1.6077,1.6099,1.6055,1.6073,1.6021,1.6005,1.596,1.5947,1.5931,1.59,1.591,1.5911,1.5955,1.5972,1.5986,1.6003,1.6014,0,0,1.6121,1.6105,1.6113,1.6072,1.6071,1.6012,1.6017,1.5974,1.5945,1.5924,1.5924,1.5958,1.5974,1.5987,1.6065,1.6074,0,0,0,1.6137,1.6143,1.6136,1.6122,1.6091,1.6064,1.6018,1.6001,1.5982,1.5941,1.5967,1.5975,1.5982,1.5989,1.5996,1.5998,1.5916,1.5916,1.5916,1.6239,1.62,1.621,1.6164,1.6151,1.6102,1.6086,1.6056,1.6022,1.6028,1.6021,1.6073,1.6083,1.6088,1.6091,1.6029,1.6029,1.6029,1.6029,1.6297,1.6298,1.625,1.6243,1.6201,1.6194,1.6146,1.6122,1.6107,1.6076,1.608,1.6048,1.6099,1.6099,1.6032,1.6032,1.6031,1.6031,1.6031,1.6358,1.6351,1.6332,1.6305,1.6289,1.6241,1.6229,1.6192,1.6156,1.616,1.6147,1.6146,1.6138,1.6157,1.6157,1.6157,1.6157,1.6157,1.6157,1.6429,1.6404,1.6399,1.6366,1.6351,1.6325,1.6275,1.6258,1.6229,1.6203,1.6202,1.6166,1.6112,1.6098,1.616,1.6159,1.6159,1.6159,1.6159,1.6499,1.6477,1.6469,1.6454,1.641,1.6394,1.6347,1.6315,1.6295,1.629,1.6252,1.6219,1.62,1.6194,1.6182,1.6262,1.6262,1.6262,1.6262,1.6549,1.6536,1.6519,1.6496,1.6469,1.6425,1.6414,1.6374,1.6328,1.6313,1.6296,1.6278,1.6273,1.6257,1.6249,1.6238,1.633,1.633,1.633,1.6589,1.6572,1.6571,1.6528,1.649,1.6457,1.6445,1.6419,1.6363,1.6332,1.63,1.6297,1.6266,1.6259,1.6227,1.6217,1.6194,0,0]},{"header":{"parameterUnit":"m.s-1","parameterCategory":1,"la1":30.2992,"la2":30.254,"lo1":-89.0895,"lo2":-89.0443,"dy":0.0025,"dx":0.0025,"nx":19,"ny":19,"refTime":"2026-04-17T09:00:00:Z","depth":0,"parameterNumber":3,"parameterNumberName":"V-component_of_WINDS"},"data":[0,0,0,3.6231,3.6234,3.6414,3.6414,3.6638,3.664,0,0,0,0,0,0,0,0,0,0,0,3.6177,3.6178,3.623,3.6235,3.6414,3.6414,3.6637,3.664,0,0,0,0,0,0,0,0,0,0,0,3.6176,3.6178,3.618,3.6235,3.6413,3.6414,3.6637,3.6503,0,0,0,0,0,0,0,0,0,0,3.633,3.628,3.6177,3.618,3.6236,3.6413,3.6414,3.6497,3.6512,3.6555,0,3.6595,0,3.6621,3.6654,3.6655,0,0,0,3.6235,3.6268,3.6317,3.618,3.6238,3.6413,3.6333,3.6505,3.6522,3.6574,3.6599,3.6607,3.6625,3.6656,3.6657,3.691,3.6911,0,0,3.6225,3.6208,3.6306,3.6328,3.6302,3.6327,3.6338,3.6515,3.654,3.6599,3.6612,3.6628,3.6657,3.6659,3.6909,3.691,0,0,0,3.6197,3.6201,3.6246,3.6319,3.6351,3.6332,3.6345,3.6532,3.6548,3.6615,3.6631,3.6659,3.6661,3.6908,3.691,3.6952,0,0,0,3.6191,3.6185,3.6242,3.6233,3.6348,3.6444,3.6358,3.6536,3.6556,3.663,3.6659,3.6663,3.6907,3.6909,3.6948,3.6974,0,0,0,3.6165,3.6182,3.6207,3.6232,3.6308,3.6442,3.6468,3.6541,3.6566,3.6655,3.6664,3.6906,3.6908,3.6944,3.6969,3.7036,0,0,0,3.6133,3.6242,3.6208,3.6336,3.6307,3.6467,3.6467,3.6587,3.6669,3.666,3.6907,3.6909,3.6943,3.6965,3.7032,3.7089,3.7111,0,0,3.6261,3.6257,3.6334,3.6308,3.647,3.6441,3.6609,3.6699,3.6722,3.6845,3.6852,3.6949,3.6968,3.7035,3.7242,3.726,0,0,0,3.6369,3.6423,3.647,3.6547,3.6619,3.6682,3.6748,3.6781,3.6886,3.6783,3.6992,3.7004,3.7043,3.7071,3.7086,3.7121,3.6922,3.6921,3.6921,3.6527,3.655,3.6678,3.6723,3.6797,3.6863,3.6925,3.698,3.6983,3.7031,3.7069,3.7192,3.7224,3.7235,3.7271,3.71,3.7101,3.7101,3.7101,3.6717,3.6798,3.6797,3.6921,3.6944,3.7047,3.7114,3.7111,3.7209,3.7166,3.7202,3.7153,3.7254,3.7286,3.7104,3.7104,3.7103,3.7103,3.7103,3.6823,3.6866,3.6904,3.7017,3.71,3.714,3.7234,3.7252,3.7269,3.7305,3.7345,3.7344,3.7346,3.7323,3.7323,3.7323,3.7324,3.7324,3.7324,3.6919,3.696,3.7039,3.7122,3.7173,3.7241,3.7306,3.7356,3.7415,3.742,3.7421,3.7417,3.726,3.722,3.7331,3.733,3.7329,3.7328,3.7328,3.7103,3.7064,3.7185,3.7235,3.7333,3.7413,3.7434,3.7533,3.7576,3.7621,3.7609,3.749,3.7487,3.7475,3.7442,3.7605,3.7605,3.7605,3.7605,3.7193,3.7193,3.7319,3.7398,3.7478,3.7508,3.7641,3.7691,3.7737,3.7764,3.7743,3.77,3.7687,3.7692,3.7675,3.7645,3.7855,3.7856,3.7856,3.7307,3.7315,3.7426,3.7472,3.7549,3.7613,3.7738,3.7827,3.787,3.7866,3.7786,3.7775,3.7707,3.7684,3.7679,3.7653,3.7597,0,0]}]]